Time,TemperatureF,DewpointF,PressureIn,WindDirection,WindDirectionDegrees,WindSpeedMPH,WindSpeedGustMPH,Humidity,HourlyPrecipIn,Conditions,Clouds,dailyrainin,SoftwareType,DateUTC
2013-03-23 00:02:00,35.0,31.0,29.93,East,80,2.0,6.0,84,0.00,,,0.00,,2013-03-23 05:02:00,
2013-03-23 00:12:00,35.0,31.0,29.93,East,80,2.0,6.0,84,0.00,,,0.00,,2013-03-23 05:12:00,
2013-03-23 00:22:00,35.0,31.0,29.93,SE,136,2.0,6.0,84,0.00,,,0.00,,2013-03-23 05:22:00,
2013-03-23 00:32:00,34.0,30.0,29.93,ESE,122,0.0,4.0,84,0.00,,,0.00,,2013-03-23 05:32:00,
2013-03-23 00:42:00,34.0,30.0,29.93,ESE,122,0.0,4.0,84,0.00,,,0.00,,2013-03-23 05:42:00,
2013-03-23 00:52:00,34.0,30.0,29.93,ESE,121,2.0,9.0,84,0.00,,,0.00,,2013-03-23 05:52:00,
2013-03-23 01:02:00,34.0,30.0,29.93,ENE,71,0.0,9.0,84,0.00,,,0.00,,2013-03-23 06:02:00,
2013-03-23 01:12:00,34.0,30.0,29.93,ENE,71,0.0,9.0,84,0.00,,,0.00,,2013-03-23 06:12:00,
2013-03-23 01:22:00,34.0,30.0,29.93,East,92,2.0,6.0,85,0.00,,,0.00,,2013-03-23 06:22:00,
2013-03-23 01:32:00,34.0,30.0,29.94,ENE,59,3.0,6.0,85,0.00,,,0.00,,2013-03-23 06:32:00,
2013-03-23 01:42:00,34.0,30.0,29.94,ENE,59,3.0,6.0,85,0.00,,,0.00,,2013-03-23 06:42:00,
2013-03-23 01:52:00,34.0,30.0,29.95,ESE,104,1.0,5.0,85,0.00,,,0.00,,2013-03-23 06:52:00,
2013-03-23 02:02:00,34.0,30.0,29.94,NE,53,3.0,5.0,86,0.00,,,0.00,,2013-03-23 07:02:00,
2013-03-23 02:12:00,34.0,30.0,29.94,NE,53,3.0,5.0,86,0.00,,,0.00,,2013-03-23 07:12:00,
2013-03-23 02:22:00,33.0,29.0,29.94,East,86,1.0,4.0,86,0.00,,,0.00,,2013-03-23 07:22:00,
2013-03-23 02:32:00,33.0,29.0,29.94,East,84,2.0,5.0,86,0.00,,,0.00,,2013-03-23 07:32:00,
2013-03-23 02:42:00,33.0,29.0,29.94,East,84,2.0,5.0,86,0.00,,,0.00,,2013-03-23 07:42:00,
2013-03-23 02:52:00,33.0,29.0,29.94,East,88,1.0,6.0,86,0.00,,,0.00,,2013-03-23 07:52:00,
2013-03-23 03:02:00,33.0,29.0,29.94,NE,41,1.0,5.0,86,0.00,,,0.00,,2013-03-23 08:02:00,
2013-03-23 03:13:00,33.0,29.0,29.94,NE,41,1.0,5.0,86,0.00,,,0.00,,2013-03-23 08:13:00,
2013-03-23 03:22:00,33.0,29.0,29.94,SE,133,0.0,4.0,86,0.00,,,0.00,,2013-03-23 08:22:00,
2013-03-23 03:32:00,33.0,29.0,29.93,SE,131,0.0,4.0,86,0.00,,,0.00,,2013-03-23 08:32:00,
2013-03-23 03:42:00,33.0,29.0,29.93,SE,131,0.0,4.0,86,0.00,,,0.00,,2013-03-23 08:42:00,
2013-03-23 03:52:00,33.0,29.0,29.93,ENE,69,0.0,5.0,86,0.00,,,0.00,,2013-03-23 08:52:00,
2013-03-23 04:02:00,33.0,29.0,29.92,ESE,103,2.0,8.0,86,0.00,,,0.00,,2013-03-23 09:02:00,
2013-03-23 04:12:00,33.0,29.0,29.92,ESE,103,2.0,8.0,86,0.00,,,0.00,,2013-03-23 09:12:00,
2013-03-23 04:22:00,33.0,30.0,29.91,East,79,3.0,9.0,87,0.00,,,0.00,,2013-03-23 09:22:00,
2013-03-23 04:33:00,32.0,29.0,29.93,NE,46,4.0,11.0,87,0.00,,,0.00,,2013-03-23 09:33:00,
2013-03-23 04:42:00,32.0,29.0,29.93,NE,46,4.0,11.0,87,0.00,,,0.00,,2013-03-23 09:42:00,
2013-03-23 04:53:00,32.0,29.0,29.92,ENE,74,4.0,7.0,88,0.00,,,0.00,,2013-03-23 09:53:00,
2013-03-23 05:03:00,32.0,29.0,29.92,ENE,67,5.0,11.0,88,0.00,,,0.00,,2013-03-23 10:03:00,
2013-03-23 05:13:00,32.0,29.0,29.92,ENE,67,5.0,11.0,88,0.00,,,0.00,,2013-03-23 10:13:00,
2013-03-23 05:23:00,32.0,29.0,29.91,ENE,59,3.0,7.0,88,0.00,,,0.00,,2013-03-23 10:23:00,
2013-03-23 05:33:00,32.0,29.0,29.91,ENE,64,4.0,9.0,88,0.00,,,0.00,,2013-03-23 10:33:00,
2013-03-23 05:42:00,32.0,29.0,29.91,ENE,64,4.0,9.0,88,0.00,,,0.00,,2013-03-23 10:42:00,
2013-03-23 05:52:00,32.0,29.0,29.92,NE,53,2.0,5.0,87,0.00,,,0.00,,2013-03-23 10:52:00,
2013-03-23 06:03:00,33.0,30.0,29.92,ENE,63,3.0,8.0,87,0.00,,,0.00,,2013-03-23 11:03:00,
2013-03-23 06:12:00,33.0,30.0,29.92,ENE,63,3.0,8.0,87,0.00,,,0.00,,2013-03-23 11:12:00,
2013-03-23 06:22:00,33.0,30.0,29.90,ENE,69,5.0,9.0,87,0.00,,,0.00,,2013-03-23 11:22:00,
2013-03-23 06:32:00,32.0,29.0,29.91,ENE,61,4.0,9.0,87,0.00,,,0.00,,2013-03-23 11:32:00,
2013-03-23 06:42:00,32.0,29.0,29.91,ENE,61,4.0,9.0,87,0.00,,,0.00,,2013-03-23 11:42:00,
2013-03-23 06:51:00,32.0,28.0,29.90,ENE,59,4.0,8.0,86,0.00,,,0.00,,2013-03-23 11:51:00,
2013-03-23 07:02:00,32.0,29.0,29.91,ENE,60,5.0,9.0,87,0.00,,,0.00,,2013-03-23 12:02:00,
2013-03-23 07:13:00,32.0,29.0,29.91,ENE,60,5.0,9.0,87,0.00,,,0.00,,2013-03-23 12:13:00,
2013-03-23 07:22:00,32.0,29.0,29.88,East,80,3.0,9.0,87,0.00,,,0.00,,2013-03-23 12:22:00,
2013-03-23 07:33:00,32.0,29.0,29.91,NNE,30,3.0,9.0,87,0.00,,,0.00,,2013-03-23 12:33:00,
2013-03-23 07:42:00,32.0,29.0,29.91,NNE,30,3.0,9.0,87,0.00,,,0.00,,2013-03-23 12:42:00,
2013-03-23 07:52:00,33.0,30.0,29.93,ENE,67,0.0,7.0,87,0.00,,,0.00,,2013-03-23 12:52:00,
2013-03-23 08:03:00,33.0,30.0,29.93,NE,56,5.0,8.0,87,0.00,,,0.00,,2013-03-23 13:03:00,
2013-03-23 08:12:00,33.0,30.0,29.93,NE,56,5.0,8.0,87,0.00,,,0.00,,2013-03-23 13:12:00,
2013-03-23 08:22:00,33.0,30.0,29.91,NE,46,4.0,12.0,87,0.00,,,0.00,,2013-03-23 13:22:00,
2013-03-23 08:32:00,33.0,30.0,29.92,East,79,3.0,9.0,87,0.00,,,0.00,,2013-03-23 13:32:00,
2013-03-23 08:42:00,33.0,30.0,29.92,East,79,3.0,9.0,87,0.00,,,0.00,,2013-03-23 13:42:00,
2013-03-23 08:52:00,33.0,30.0,29.93,ENE,57,2.0,7.0,87,0.00,,,0.00,,2013-03-23 13:52:00,
2013-03-23 09:03:00,33.0,30.0,29.97,ENE,65,2.0,5.0,88,0.00,,,0.00,,2013-03-23 14:03:00,
2013-03-23 09:12:00,33.0,30.0,29.97,ENE,65,2.0,5.0,88,0.00,,,0.00,,2013-03-23 14:12:00,
2013-03-23 09:22:00,33.0,30.0,29.96,ENE,60,3.0,9.0,88,0.00,,,0.00,,2013-03-23 14:22:00,
2013-03-23 09:32:00,33.0,30.0,29.96,ENE,60,5.0,9.0,88,0.00,,,0.00,,2013-03-23 14:32:00,
2013-03-23 09:42:00,33.0,30.0,29.96,ENE,60,5.0,9.0,88,0.00,,,0.00,,2013-03-23 14:42:00,
2013-03-23 09:52:00,33.0,30.0,29.96,ENE,64,4.0,11.0,89,0.00,,,0.00,,2013-03-23 14:52:00,
2013-03-23 10:03:00,33.0,30.0,29.96,NE,52,4.0,13.0,89,0.00,,,0.00,,2013-03-23 15:03:00,
2013-03-23 10:12:00,33.0,30.0,29.96,NE,52,4.0,13.0,89,0.00,,,0.00,,2013-03-23 15:12:00,
2013-03-23 10:22:00,33.0,30.0,29.95,ENE,57,4.0,11.0,90,0.00,,,0.00,,2013-03-23 15:22:00,
2013-03-23 10:33:00,33.0,30.0,29.94,ENE,71,5.0,10.0,90,0.00,,,0.00,,2013-03-23 15:33:00,
2013-03-23 10:43:00,33.0,30.0,29.94,ENE,71,5.0,10.0,90,0.00,,,0.00,,2013-03-23 15:43:00,
2013-03-23 10:52:00,33.0,30.0,29.95,NNE,28,7.0,11.0,90,0.00,,,0.00,,2013-03-23 15:52:00,
2013-03-23 11:03:00,33.0,30.0,29.93,ENE,58,5.0,13.0,89,0.00,,,0.00,,2013-03-23 16:03:00,
2013-03-23 11:13:00,33.0,30.0,29.93,ENE,58,5.0,13.0,89,0.00,,,0.00,,2013-03-23 16:13:00,
2013-03-23 11:23:00,33.0,30.0,29.94,ENE,67,5.0,13.0,89,0.00,,,0.00,,2013-03-23 16:23:00,
2013-03-23 11:33:00,33.0,30.0,29.93,ENE,76,3.0,7.0,88,0.00,,,0.00,,2013-03-23 16:33:00,
2013-03-23 11:43:00,33.0,30.0,29.93,ENE,76,3.0,7.0,88,0.00,,,0.00,,2013-03-23 16:43:00,
2013-03-23 11:53:00,33.0,30.0,29.94,ENE,65,1.0,9.0,88,0.00,,,0.00,,2013-03-23 16:53:00,
2013-03-23 12:02:00,33.0,30.0,29.94,ENE,78,3.0,9.0,88,0.00,,,0.00,,2013-03-23 17:02:00,
2013-03-23 12:12:00,33.0,30.0,29.93,ENE,72,3.0,9.0,89,0.00,,,0.00,,2013-03-23 17:12:00,
2013-03-23 12:22:00,33.0,30.0,29.93,ENE,72,3.0,9.0,89,0.00,,,0.00,,2013-03-23 17:22:00,
2013-03-23 12:32:00,33.0,30.0,29.92,NE,53,3.0,7.0,89,0.00,,,0.00,,2013-03-23 17:32:00,
2013-03-23 12:42:00,33.0,30.0,29.92,NE,53,3.0,7.0,89,0.00,,,0.00,,2013-03-23 17:42:00,
2013-03-23 12:52:00,33.0,30.0,29.92,ENE,75,3.0,6.0,90,0.00,,,0.00,,2013-03-23 17:52:00,
2013-03-23 13:03:00,33.0,30.0,29.91,ENE,71,3.0,7.0,90,0.00,,,0.00,,2013-03-23 18:03:00,
2013-03-23 13:12:00,33.0,30.0,29.91,ENE,71,3.0,7.0,90,0.00,,,0.00,,2013-03-23 18:12:00,
2013-03-23 13:22:00,33.0,30.0,29.91,ENE,65,3.0,7.0,90,0.00,,,0.00,,2013-03-23 18:22:00,
2013-03-23 13:32:00,33.0,31.0,29.91,East,94,4.0,10.0,91,0.00,,,0.00,,2013-03-23 18:32:00,
2013-03-23 13:42:00,33.0,31.0,29.91,East,94,4.0,10.0,91,0.00,,,0.00,,2013-03-23 18:42:00,
2013-03-23 14:03:00,33.0,31.0,29.90,ENE,63,5.0,11.0,91,0.01,,,0.01,,2013-03-23 19:03:00,
2013-03-23 14:12:00,33.0,31.0,29.90,ENE,63,5.0,11.0,91,0.01,,,0.01,,2013-03-23 19:12:00,
2013-03-23 14:22:00,33.0,31.0,29.90,ENE,68,4.0,11.0,92,0.01,,,0.01,,2013-03-23 19:22:00,
2013-03-23 14:32:00,33.0,31.0,29.88,East,80,3.0,13.0,92,0.02,,,0.02,,2013-03-23 19:32:00,
2013-03-23 14:42:00,33.0,31.0,29.88,East,80,3.0,13.0,92,0.02,,,0.02,,2013-03-23 19:42:00,
2013-03-23 14:52:00,33.0,31.0,29.88,ENE,59,7.0,15.0,92,0.03,,,0.03,,2013-03-23 19:52:00,
2013-03-23 15:02:00,33.0,31.0,29.88,NE,49,4.0,7.0,92,0.02,,,0.03,,2013-03-23 20:02:00,
2013-03-23 15:13:00,33.0,31.0,29.88,NE,49,4.0,7.0,92,0.02,,,0.03,,2013-03-23 20:13:00,
2013-03-23 15:22:00,33.0,31.0,29.88,ENE,63,4.0,10.0,92,0.02,,,0.03,,2013-03-23 20:22:00,
2013-03-23 15:32:00,33.0,31.0,29.88,ENE,64,2.0,9.0,92,0.01,,,0.03,,2013-03-23 20:32:00,
2013-03-23 15:42:00,33.0,31.0,29.88,ENE,64,2.0,9.0,92,0.01,,,0.03,,2013-03-23 20:42:00,
2013-03-23 15:52:00,32.0,30.0,29.87,ENE,61,5.0,11.0,92,0.01,,,0.04,,2013-03-23 20:52:00,
2013-03-23 16:02:00,32.0,30.0,29.87,ENE,65,5.0,11.0,92,0.01,,,0.04,,2013-03-23 21:02:00,
2013-03-23 16:12:00,32.0,30.0,29.87,ENE,65,5.0,11.0,92,0.01,,,0.04,,2013-03-23 21:12:00,
2013-03-23 16:22:00,32.0,30.0,29.87,ENE,59,3.0,9.0,92,0.02,,,0.05,,2013-03-23 21:22:00,
2013-03-23 16:33:00,32.0,30.0,29.88,NE,51,6.0,10.0,92,0.02,,,0.05,,2013-03-23 21:33:00,
2013-03-23 16:43:00,32.0,30.0,29.88,NE,51,6.0,10.0,92,0.02,,,0.05,,2013-03-23 21:43:00,
2013-03-23 16:53:00,33.0,31.0,29.88,NE,49,2.0,9.0,92,0.02,,,0.06,,2013-03-23 21:53:00,
2013-03-23 17:03:00,33.0,31.0,29.88,NE,56,0.0,7.0,92,0.02,,,0.06,,2013-03-23 22:03:00,
2013-03-23 17:13:00,33.0,31.0,29.88,NE,56,0.0,7.0,92,0.02,,,0.06,,2013-03-23 22:13:00,
2013-03-23 17:23:00,33.0,31.0,29.88,NE,53,1.0,9.0,92,0.01,,,0.06,,2013-03-23 22:23:00,
2013-03-23 17:33:00,33.0,31.0,29.88,ENE,61,0.0,6.0,92,0.02,,,0.07,,2013-03-23 22:33:00,
2013-03-23 17:42:00,33.0,31.0,29.88,ENE,61,0.0,6.0,92,0.02,,,0.07,,2013-03-23 22:42:00,
2013-03-23 17:52:00,33.0,31.0,29.88,ENE,57,0.0,10.0,92,0.01,,,0.07,,2013-03-23 22:52:00,
2013-03-23 18:02:00,33.0,31.0,29.88,ENE,59,3.0,10.0,93,0.01,,,0.07,,2013-03-23 23:02:00,
2013-03-23 18:12:00,33.0,31.0,29.88,ENE,59,3.0,10.0,93,0.01,,,0.07,,2013-03-23 23:12:00,
2013-03-23 18:22:00,33.0,31.0,29.87,ENE,59,4.0,10.0,93,0.01,,,0.07,,2013-03-23 23:22:00,
2013-03-23 18:33:00,33.0,31.0,29.88,ENE,67,2.0,9.0,93,0.01,,,0.08,,2013-03-23 23:33:00,
2013-03-23 18:43:00,33.0,31.0,29.88,ENE,67,2.0,9.0,93,0.01,,,0.08,,2013-03-23 23:43:00,
2013-03-23 18:52:00,33.0,31.0,29.89,NNE,18,2.0,10.0,92,0.01,,,0.08,,2013-03-23 23:52:00,
2013-03-23 19:02:00,33.0,31.0,29.89,NNE,18,2.0,10.0,92,0.01,,,0.08,,2013-03-24 00:02:00,
2013-03-23 19:12:00,33.0,31.0,29.89,NNE,18,2.0,10.0,92,0.01,,,0.08,,2013-03-24 00:12:00,
2013-03-23 19:22:00,32.0,30.0,29.91,NNE,19,1.0,5.0,93,0.01,,,0.08,,2013-03-24 00:22:00,
2013-03-23 19:32:00,32.0,30.0,29.92,NE,36,0.0,3.0,93,0.00,,,0.08,,2013-03-24 00:32:00,
2013-03-23 19:42:00,32.0,30.0,29.92,NE,36,0.0,3.0,93,0.00,,,0.08,,2013-03-24 00:42:00,
2013-03-23 19:52:00,32.0,30.0,29.92,ENE,66,2.0,9.0,93,0.00,,,0.08,,2013-03-24 00:52:00,
2013-03-23 20:02:00,32.0,30.0,29.92,ENE,63,2.0,10.0,93,0.00,,,0.08,,2013-03-24 01:02:00,
2013-03-23 20:12:00,32.0,30.0,29.92,ENE,63,2.0,10.0,93,0.00,,,0.08,,2013-03-24 01:12:00,
2013-03-23 20:22:00,32.0,30.0,29.92,NE,55,0.0,9.0,93,0.00,,,0.08,,2013-03-24 01:22:00,
2013-03-23 20:32:00,32.0,30.0,29.92,NNE,25,0.0,10.0,93,0.00,,,0.08,,2013-03-24 01:32:00,
2013-03-23 20:42:00,32.0,30.0,29.92,NNE,25,0.0,10.0,93,0.00,,,0.08,,2013-03-24 01:42:00,
2013-03-23 20:52:00,32.0,30.0,29.90,NE,45,4.0,11.0,93,0.00,,,0.08,,2013-03-24 01:52:00,
2013-03-23 21:03:00,31.0,29.0,29.86,NE,37,6.0,11.0,93,0.00,,,0.08,,2013-03-24 02:03:00,
2013-03-23 21:12:00,31.0,29.0,29.86,NE,37,6.0,11.0,93,0.00,,,0.08,,2013-03-24 02:12:00,
2013-03-23 21:22:00,31.0,29.0,29.86,NNE,19,4.0,13.0,93,0.00,,,0.08,,2013-03-24 02:22:00,
2013-03-23 21:32:00,31.0,29.0,29.89,NNE,25,5.0,13.0,93,0.00,,,0.08,,2013-03-24 02:32:00,
2013-03-23 21:42:00,31.0,29.0,29.89,NNE,25,5.0,13.0,93,0.00,,,0.08,,2013-03-24 02:42:00,
2013-03-23 21:52:00,31.0,29.0,29.93,NNE,32,6.0,13.0,93,0.00,,,0.08,,2013-03-24 02:52:00,
2013-03-23 22:02:00,31.0,29.0,29.96,NNE,21,3.0,11.0,93,0.00,,,0.08,,2013-03-24 03:02:00,
2013-03-23 22:12:00,31.0,29.0,29.96,NNE,21,3.0,11.0,93,0.00,,,0.08,,2013-03-24 03:12:00,
2013-03-23 22:22:00,31.0,29.0,29.96,North,10,5.0,11.0,93,0.00,,,0.08,,2013-03-24 03:22:00,
2013-03-23 22:33:00,31.0,29.0,29.94,NE,34,2.0,11.0,93,0.00,,,0.08,,2013-03-24 03:33:00,
2013-03-23 22:42:00,31.0,29.0,29.94,NE,34,2.0,11.0,93,0.00,,,0.08,,2013-03-24 03:42:00,
2013-03-23 22:52:00,31.0,29.0,29.90,NE,52,6.0,13.0,93,0.00,,,0.08,,2013-03-24 03:52:00,
2013-03-23 23:03:00,31.0,29.0,29.92,NE,49,4.0,19.0,93,0.00,,,0.08,,2013-03-24 04:03:00,
2013-03-23 23:13:00,31.0,29.0,29.92,NE,49,4.0,19.0,93,0.00,,,0.08,,2013-03-24 04:13:00,
2013-03-23 23:22:00,30.0,28.0,29.93,NE,53,3.0,12.0,92,0.00,,,0.08,,2013-03-24 04:22:00,
2013-03-23 23:32:00,30.0,28.0,29.95,NNE,26,1.0,5.0,92,0.00,,,0.08,,2013-03-24 04:32:00,
2013-03-23 23:43:00,30.0,28.0,29.95,NNE,26,1.0,5.0,92,0.00,,,0.08,,2013-03-24 04:43:00,
2013-03-23 23:52:00,30.0,28.0,29.97,NE,45,1.0,7.0,93,0.00,,,0.08,,2013-03-24 04:52:00,